Home   Weather   Kemer   Past weeks
Flag for Turkey

Past Weather in Kemer, Turkey — Yesterday and Last 2 Weeks

Now
55 °F

Passing clouds.


Feels Like: 54 °F
Forecast: 64 / 53 °F
Wind: 6 mph from North

Location: Antalya Airport

Current Time: Apr 3, 2020 at 1:38:41 am

Latest Report: Apr 3, 2020 at 12:50 am


Visibility: N/A

Pressure: 29.77 "Hg

Humidity: 88%

Dew Point: 52 °F

Location of KemerLocation

Past Weather in Kemer — Graph

°F

Kemer Temperature Yesterday

Maximum temperature yesterday: 66 °F (at 3:50 pm)
Minimum temperature yesterday: 52 °F (at 5:20 am)
Average temperature yesterday: 60 °F

High & Low Weather Summary for the Past Weeks

 TemperatureHumidityPressure
High72 °F (Mar 25, 12:20 pm)100% (Mar 28, 6:50 am)30.04 "Hg (Mar 28, 6:50 am)
Low41 °F (Mar 22, 6:50 am)25% (Mar 20, 2:20 pm)29.68 "Hg (Mar 31, 5:20 pm)
Average57 °F65%29.87 "Hg
* Reported Mar 19 12:20 am — Apr 3 12:20 am, Kemer. Weather by CustomWeather, © 2020

Note: Actual official high and low records may vary slightly from our data, if they occured in-between our weather recording intervals... More about our weather records

Kemer Weather History for the Previous 24 Hours

Scroll right to see more
 ConditionsComfort  
Time TempWeatherWind HumidityBarometerVisibility
12:20 am
Fri, Apr 3
57 °FPassing clouds.5 mph82%29.80 "HgN/A
11:50 pm
Thu, Apr 2
59 °FPassing clouds.8 mph77%29.80 "HgN/A
11:20 pm61 °FPassing clouds.10 mph77%29.80 "HgN/A
10:50 pm61 °FPartly cloudy.13 mph77%29.80 "HgN/A
10:20 pm61 °FPartly cloudy.16 mph83%29.80 "HgN/A
9:50 pm61 °FPartly cloudy.17 mph77%29.80 "HgN/A
9:20 pm61 °FPartly cloudy.18 mph83%29.80 "HgN/A
8:50 pm61 °FPartly cloudy.18 mph83%29.80 "HgN/A
8:20 pm61 °FPassing clouds.17 mph72%29.80 "HgN/A
8:05 pm63 °FPassing clouds.17 mph68%29.80 "HgN/A
7:50 pm63 °FPassing clouds.10 mph73%29.80 "HgN/A
7:20 pm63 °FPassing clouds.14 mph73%29.80 "HgN/A
6:50 pm63 °FPartly sunny.15 mph73%29.80 "HgN/A
6:20 pm63 °FPartly sunny.15 mph73%29.80 "HgN/A
5:50 pm64 °FPartly sunny.16 mph68%29.80 "HgN/A
5:20 pm63 °FPartly sunny.16 mph73%29.80 "HgN/A
4:50 pm64 °FPartly sunny.14 mph64%29.80 "HgN/A
4:20 pm64 °FPartly sunny.14 mph68%29.83 "HgN/A
3:50 pm66 °FPartly sunny.10 mph64%29.83 "HgN/A
3:20 pm64 °FPartly sunny.10 mph73%29.83 "HgN/A
2:50 pm64 °FPartly sunny.13 mph73%29.83 "HgN/A
2:20 pm64 °FPartly sunny.13 mph73%29.86 "HgN/A
1:50 pm64 °FPartly sunny.14 mph73%29.86 "HgN/A
1:20 pm63 °FScattered clouds.13 mph73%29.86 "HgN/A
12:50 pm64 °FScattered clouds.12 mph64%29.86 "HgN/A
12:20 pm64 °FScattered clouds.9 mph68%29.86 "HgN/A
11:50 am64 °FScattered clouds.9 mph68%29.86 "HgN/A
11:20 am64 °FScattered clouds.8 mph64%29.86 "HgN/A
10:50 am64 °FScattered clouds.7 mph64%29.86 "HgN/A
10:20 am63 °FScattered clouds.5 mph64%29.86 "HgN/A
9:50 am63 °FScattered clouds.2 mph68%29.86 "HgN/A
9:20 am61 °FScattered clouds.6 mph77%29.86 "HgN/A
8:50 am59 °FScattered clouds.5 mph82%29.86 "HgN/A
8:20 am57 °FScattered clouds.3 mph82%29.86 "HgN/A
7:50 am54 °FScattered clouds.3 mph94%29.86 "HgN/A
7:20 am54 °FBroken clouds.5 mph94%29.86 "HgN/A
6:50 am52 °FScattered clouds.2 mph94%29.86 "HgN/A
6:20 am52 °FPassing clouds.3 mph94%29.83 "HgN/A
5:50 am52 °FPassing clouds.3 mph100%29.83 "HgN/A
5:20 am52 °FPassing clouds.5 mph100%29.83 "HgN/A
4:50 am54 °FPassing clouds.6 mph94%29.83 "HgN/A
4:20 am54 °FPassing clouds.5 mph94%29.83 "HgN/A
3:50 am54 °FPassing clouds.6 mph94%29.83 "HgN/A
3:20 am54 °FPassing clouds.7 mph94%29.83 "HgN/A
2:50 am54 °FPassing clouds.5 mph94%29.83 "HgN/A
2:20 am55 °FPassing clouds.2 mph88%29.83 "HgN/A
1:50 am55 °FPassing clouds.5 mph94%29.83 "HgN/A
1:20 am54 °FPassing clouds.6 mph94%29.83 "HgN/A
Weather by CustomWeather, © 2020

See weather overview

Advertising